Location: Campillo
(40.8621°N, 4.2488°W)
Time: 08:02:16
(UTC+00:00)

X-37B - Visible Passes

Search period start: 30 July 2021 00:00
Search period end: 09 August 2021 00:00
Orbit: 383 x 392 km, 45.0° (Epoch: 01 July)

Date Brightness Start Highest point End Pass type
(mag) Time Alt. Az. Time Alt. Az. Time Alt. Az.
30 Jul 3.0 03:50:29 12° S 03:51:59 15° SE 03:53:54 10° ESE visible
31 Jul 1.2 04:27:02 11° SW 04:29:55 48° SSE 04:33:02 10° ENE visible
01 Aug 1.9 03:31:15 26° SSE 03:31:41 27° SE 03:34:27 10° E visible
02 Aug 0.5 04:07:42 20° WSW 04:09:46 85° SSE 04:12:59 10° ENE visible
03 Aug 1.3 03:11:51 45° SE 03:11:51 45° SE 03:14:33 10° ENE visible
04 Aug 0.9 03:48:15 28° W 03:49:41 62° NNW 03:52:52 10° ENE visible
05 Aug 1.9 02:52:22 38° ENE 02:52:22 38° ENE 02:54:30 10° ENE visible
05 Aug 1.8 04:25:07 10° WNW 04:28:08 38° N 04:31:10 10° ENE visible
06 Aug 1.5 03:28:45 34° WNW 03:29:39 45° NNW 03:32:45 10° ENE visible
07 Aug 2.9 02:32:54 24° ENE 02:32:54 24° ENE 02:34:23 10° ENE visible
07 Aug 2.0 04:05:11 10° WNW 04:08:09 36° N 04:11:10 10° ENE visible
08 Aug 1.8 03:09:22 37° NNW 03:09:40 38° N 03:12:41 10° ENE visible
08 Aug 1.5 04:43:32 10° WNW 04:46:40 49° NNE 04:49:46 10° E visible
